#�ϑ�����,���ϕ���,���ϕ���,�ő啗��,�ő啗����������,�ő�u�ԕ���,�ő�u�ԕ�����������
#(�N����),(m/s)   ,(16����),(m/s)   ,(16����)        ,(m/s)       ,(16����)            
2012/8/19 0:01,1.2,2,1.3,3,1.9,16
2012/8/19 0:02,1.2,2,1.2,3,1.8,3
2012/8/19 0:03,1.1,2,1.2,3,1.8,2
2012/8/19 0:04,1,2,1.1,3,1.1,1
2012/8/19 0:05,0.9,2,1,3,1.6,1
2012/8/19 0:06,0.9,2,0.9,3,0.9,1
2012/8/19 0:07,0.8,2,0.9,3,1.1,3
2012/8/19 0:08,0.8,2,0.8,3,1.4,3
2012/8/19 0:09,0.7,2,0.8,3,1.5,3
2012/8/19 0:10,0.7,2,0.7,2,0.9,3
2012/8/19 0:11,0.7,2,0.7,2,1.9,4
2012/8/19 0:12,0.7,2,0.7,2,1.5,3
2012/8/19 0:13,0.6,2,0.7,2,1,1
2012/8/19 0:14,0.6,2,0.6,2,1.1,2
2012/8/19 0:15,0.6,2,0.7,2,1.3,3
2012/8/19 0:16,0.7,2,0.7,2,2,6
2012/8/19 0:17,0.8,3,0.8,2,2,5
2012/8/19 0:18,0.8,3,0.8,2,1.3,2
2012/8/19 0:19,0.8,3,0.8,3,1.5,1
2012/8/19 0:20,0.9,3,0.9,3,1.6,3
2012/8/19 0:21,0.9,2,0.9,3,1.6,3
2012/8/19 0:22,0.9,2,0.9,3,2,1
2012/8/19 0:23,1,2,1,2,2.9,4
2012/8/19 0:24,1.1,2,1.1,2,3,3
2012/8/19 0:25,1.2,3,1.2,2,2.5,3
2012/8/19 0:26,1.3,2,1.3,2,2.9,3
2012/8/19 0:27,1.3,2,1.3,2,2,3
2012/8/19 0:28,1.3,2,1.3,2,1.4,1
2012/8/19 0:29,1.4,2,1.4,2,2.4,3
2012/8/19 0:30,1.4,2,1.4,2,2,3
2012/8/19 0:31,1.4,2,1.4,2,2.5,2
2012/8/19 0:32,1.4,2,1.4,2,2.2,1
2012/8/19 0:33,1.5,2,1.5,2,2.7,3
2012/8/19 0:34,1.5,2,1.5,2,2.1,3
2012/8/19 0:35,1.5,2,1.5,2,1.5,3
2012/8/19 0:36,1.4,2,1.4,2,1.8,3
2012/8/19 0:37,1.4,2,1.4,2,1.5,1
2012/8/19 0:38,1.4,3,1.4,2,2.1,4
2012/8/19 0:39,1.3,3,1.4,2,1.9,3
2012/8/19 0:40,1.4,3,1.4,2,2.1,3
2012/8/19 0:41,1.4,3,1.4,2,2.2,3
2012/8/19 0:42,1.4,3,1.4,2,1.1,5
2012/8/19 0:43,1.3,3,1.4,2,2.2,3
2012/8/19 0:44,1.3,3,1.3,2,2.4,4
2012/8/19 0:45,1.3,3,1.3,2,2.2,3
2012/8/19 0:46,1.3,3,1.3,2,1.3,1
2012/8/19 0:47,1.3,3,1.3,2,2.1,2
2012/8/19 0:48,1.3,3,1.3,3,3.1,2
2012/8/19 0:49,1.5,3,1.5,3,3,4
2012/8/19 0:50,1.5,3,1.5,3,3.2,2
2012/8/19 0:51,1.5,3,1.5,3,2.4,3
2012/8/19 0:52,1.6,3,1.6,3,2.5,2
2012/8/19 0:53,1.6,3,1.6,3,2.6,3
2012/8/19 0:54,1.7,3,1.7,3,3.5,3
2012/8/19 0:55,1.8,3,1.8,3,4.2,4
2012/8/19 0:56,1.9,3,1.9,3,3.8,4
2012/8/19 0:57,2,3,2,3,2.7,5
2012/8/19 0:58,2,3,2,3,2.2,4
2012/8/19 0:59,1.8,3,1.9,3,2,4
2012/8/19 1:00,1.8,3,1.8,3,2.4,3
2012/8/19 1:01,1.8,3,1.8,3,2.1,3
2012/8/19 1:02,1.7,3,1.8,3,2.4,2
2012/8/19 1:03,1.7,3,1.7,3,2,3
2012/8/19 1:04,1.6,3,1.7,3,2.2,2
2012/8/19 1:05,1.5,3,1.6,3,4.4,3
2012/8/19 1:06,1.5,3,1.5,3,3.2,3
2012/8/19 1:07,1.6,3,1.6,3,3.8,2
2012/8/19 1:08,1.6,2,1.6,3,2.4,2
2012/8/19 1:09,1.5,2,1.6,3,1.6,2
2012/8/19 1:10,1.4,2,1.5,3,1.5,2
2012/8/19 1:11,1.4,2,1.4,3,1.8,3
2012/8/19 1:12,1.4,2,1.4,3,2.1,2
2012/8/19 1:13,1.4,2,1.4,3,1.8,2
2012/8/19 1:14,1.4,2,1.4,3,1.6,1
2012/8/19 1:15,1.3,2,1.4,3,1.8,1
2012/8/19 1:16,1.2,2,1.3,3,4.1,3
2012/8/19 1:17,1.3,2,1.3,3,3.9,3
2012/8/19 1:18,1.3,2,1.3,2,2.9,3
2012/8/19 1:19,1.4,2,1.4,2,2.9,3
2012/8/19 1:20,1.6,2,1.6,2,4.2,3
2012/8/19 1:21,1.8,2,1.8,2,3.9,3
2012/8/19 4:10,1.6,4,1.6,4,1.8,3
2012/8/19 4:11,1.4,3,1.6,4,1.9,4
2012/8/19 4:12,0.8,2,1.3,4,1.3,3
2012/8/19 4:13,1.2,2,1.2,4,2.2,2
2012/8/19 4:14,1.3,2,1.3,4,2.4,3
2012/8/19 4:15,1.4,2,1.4,4,2.1,3
2012/8/19 4:16,1.4,2,1.4,4,1.9,4
2012/8/19 4:17,1.3,3,1.4,4,2,4
2012/8/19 4:18,1.4,3,1.4,4,2.2,4
2012/8/19 4:19,1.4,3,1.4,4,3,3
2012/8/19 4:20,1.5,3,1.5,4,3.2,3
2012/8/19 4:21,1.6,3,1.6,3,3.2,3
2012/8/19 4:22,1.8,3,1.8,3,2.4,2
2012/8/19 4:23,1.8,3,1.8,3,2.7,3
2012/8/19 4:24,1.7,3,1.8,3,2.1,3
2012/8/19 4:25,1.7,3,1.7,3,2.4,3
2012/8/19 4:26,1.8,3,1.8,3,3.2,3
2012/8/19 4:27,1.9,3,1.9,3,3.5,3
2012/8/19 4:28,2,3,2,3,3.7,3
2012/8/19 4:29,2.1,3,2.1,3,3.7,3
2012/8/19 4:30,2,3,2.1,3,3.2,4
2012/8/19 4:31,2,3,2,3,2.7,3
2012/8/19 4:32,1.9,3,2,3,2.4,4
2012/8/19 4:33,1.9,3,1.9,3,3.3,3
2012/8/19 4:34,2,3,2,3,3.3,3
2012/8/19 4:35,2.1,3,2.1,3,3.9,3
2012/8/19 4:36,2.2,3,2.2,3,3.7,3
2012/8/19 4:37,2.2,3,2.2,3,3.5,3
2012/8/19 4:38,2.2,3,2.2,3,2.5,3
2012/8/19 4:39,2.1,3,2.2,3,2.6,1
2012/8/19 4:40,2,3,2.1,3,3,1
2012/8/19 4:41,2.1,3,2.1,3,3.3,4
2012/8/19 4:42,2.2,3,2.2,3,3.3,4
2012/8/19 4:43,2.3,4,2.3,4,3.6,5
2012/8/19 4:44,2.2,4,2.2,4,2.2,5
2012/8/19 4:45,2.1,4,2.2,4,3,4
2012/8/19 4:46,1.9,4,2.1,4,2.5,5
2012/8/19 4:47,1.8,3,1.9,4,2.7,2
2012/8/19 4:48,1.9,3,1.9,4,2.9,2
2012/8/19 4:49,1.8,3,1.9,4,2.9,3
2012/8/19 4:50,1.8,3,1.8,4,2.7,2
2012/8/19 4:51,1.8,3,1.8,4,3.3,3
2012/8/19 4:52,1.8,3,1.8,4,3,3
2012/8/19 4:53,1.7,3,1.8,4,2.5,3
2012/8/19 4:54,1.8,3,1.8,4,2.6,3
2012/8/19 4:55,1.7,2,1.8,4,2.1,2
2012/8/19 4:56,1.8,2,1.8,4,2.5,3
2012/8/19 4:57,1.8,2,1.8,3,2.2,2
2012/8/19 4:58,1.7,2,1.8,3,2.5,4
2012/8/19 4:59,1.7,2,1.7,3,2.5,2
2012/8/19 5:00,1.8,2,1.8,3,3.8,2
2012/8/19 5:01,1.8,3,1.8,3,2.6,3
2012/8/19 5:02,1.7,2,1.8,3,2.4,3
2012/8/19 5:03,1.8,3,1.8,3,3.1,4
2012/8/19 5:04,1.7,3,1.8,3,2.4,4
2012/8/19 5:05,1.7,3,1.8,2,2.9,4
2012/8/19 5:06,1.7,2,1.7,2,2.7,2
2012/8/19 5:07,1.7,2,1.7,2,2.4,16
2012/8/19 5:08,1.8,2,1.8,2,3.1,2
2012/8/19 5:09,1.8,3,1.8,2,2.7,3
2012/8/19 5:10,1.7,2,1.8,2,2.2,3
2012/8/19 5:11,1.7,2,1.7,3,2.6,2
2012/8/19 5:12,1.7,2,1.7,3,2.6,3
2012/8/19 5:13,1.7,2,1.7,3,2.7,4
2012/8/19 5:14,1.8,2,1.8,3,3,3
2012/8/19 5:15,1.9,2,1.9,3,3.7,3
2012/8/19 5:16,1.9,3,1.9,3,2.5,3
2012/8/19 5:17,1.9,3,1.9,3,2.6,4
2012/8/19 5:18,1.9,3,1.9,3,2.4,4
2012/8/19 5:19,1.9,3,1.9,3,3,2
2012/8/19 5:20,2,3,2,3,2.7,4
2012/8/19 5:21,1.9,3,2,3,2.4,2
2012/8/19 5:22,1.7,3,1.9,3,1.4,1
2012/8/19 5:23,1.6,3,1.7,3,1.3,3
2012/8/19 5:24,1.5,2,1.6,3,1.5,1
2012/8/19 5:25,1.3,2,1.5,3,1.3,1
2012/8/19 5:26,1.3,2,1.3,3,2.4,3
2012/8/19 5:27,1.3,2,1.3,3,2.4,3
2012/8/19 5:28,1.3,2,1.3,3,2.2,4
2012/8/19 5:29,1.2,2,1.3,3,2.1,4
2012/8/19 5:30,1.1,2,1.2,3,2,2
2012/8/19 5:31,1.1,2,1.1,3,1.9,2
2012/8/19 5:32,1.2,2,1.2,3,2,3
2012/8/19 5:33,1.3,2,1.3,3,2.5,3
2012/8/19 5:34,1.3,2,1.3,2,2.2,2
2012/8/19 5:35,1.4,2,1.4,2,2.5,2
2012/8/19 5:36,1.5,3,1.5,3,2.9,3
2012/8/19 5:37,1.5,3,1.5,3,2.5,4
2012/8/19 5:38,1.5,3,1.5,3,1.8,3
2012/8/19 5:39,1.5,2,1.5,3,1.8,3
2012/8/19 5:40,1.4,2,1.5,3,1.8,2
2012/8/19 5:41,1.5,2,1.5,3,3.1,3
2012/8/19 5:42,1.6,2,1.6,2,2.9,3
2012/8/19 5:43,1.6,2,1.7,2,2.7,4
2012/8/19 5:44,1.6,2,1.6,2,2,4
2012/8/19 5:45,1.6,3,1.6,2,2.4,3
2012/8/19 5:46,1.6,2,1.6,2,2.9,3
2012/8/19 5:47,1.6,2,1.6,2,3,3
2012/8/19 5:48,1.7,2,1.7,2,2.7,2
2012/8/19 5:49,1.7,2,1.7,2,1.9,2
2012/8/19 5:50,1.8,2,1.8,2,3.6,3
2012/8/19 5:51,1.8,2,1.8,2,3.3,2
2012/8/19 5:52,1.7,2,1.8,2,2.6,2
2012/8/19 5:53,1.8,2,1.8,2,3.1,3
2012/8/19 5:54,1.8,2,1.8,2,2.7,2
2012/8/19 5:55,1.9,2,1.9,2,2.9,3
2012/8/19 5:56,1.9,2,1.9,2,3.2,2
2012/8/19 5:57,1.9,2,1.9,2,3,2
2012/8/19 5:58,1.9,2,1.9,2,2.6,3
2012/8/19 5:59,1.8,2,1.9,2,1.5,3
2012/8/19 6:00,1.8,2,1.8,2,3,4
2012/8/19 6:01,1.8,2,1.8,2,2.2,2
2012/8/19 6:02,1.7,2,1.7,2,2.2,16
2012/8/19 6:03,1.7,2,1.7,2,3.2,3
2012/8/19 6:04,1.7,2,1.7,2,2.5,3
2012/8/19 6:05,1.7,2,1.7,2,3,2
2012/8/19 6:06,1.7,2,1.7,2,3.1,3
2012/8/19 6:07,1.6,2,1.7,2,2.4,2
2012/8/19 6:08,1.6,2,1.6,2,2,2
2012/8/19 6:09,1.6,2,1.6,2,1.4,2
2012/8/19 6:10,1.5,2,1.6,2,2.4,2
2012/8/19 6:11,1.5,2,1.5,2,1.8,2
2012/8/19 6:12,1.6,2,1.6,2,3.1,2
2012/8/19 6:13,1.6,2,1.6,2,3,3
2012/8/19 6:14,1.6,2,1.6,2,3,3
2012/8/19 6:15,1.6,2,1.6,2,2.7,4
2012/8/19 6:16,1.5,2,1.6,2,2.5,3
2012/8/19 6:17,1.5,2,1.5,2,3.3,3
2012/8/19 6:18,1.6,2,1.6,2,3.5,3
2012/8/19 6:19,1.7,2,1.7,2,2.5,3
2012/8/19 6:20,1.7,2,1.7,2,2.2,3
2012/8/19 6:21,1.8,3,1.8,2,2.4,3
2012/8/19 6:22,1.8,2,1.8,2,2,3
2012/8/19 6:23,1.7,3,1.8,2,2.9,3
2012/8/19 6:24,1.7,3,1.7,2,2.6,3
2012/8/19 6:25,1.7,3,1.7,2,3,3
2012/8/19 6:26,1.8,3,1.8,2,3.3,3
2012/8/19 6:27,1.9,3,1.9,3,3.8,3
2012/8/19 6:28,1.9,3,1.9,3,4.2,3
2012/8/19 6:29,2,3,2,3,3.1,1
2012/8/19 6:30,2.1,3,2.1,3,3,3
2012/8/19 6:31,2.1,3,2.1,3,2.7,3
2012/8/19 6:32,2,2,2.1,3,1.9,3
2012/8/19 6:33,2,2,2.1,3,2.7,1
2012/8/19 6:34,2.1,2,2.1,3,3.7,3
2012/8/19 6:35,2.1,2,2.1,3,2.9,2
2012/8/19 6:36,2.2,3,2.2,3,2.9,3
2012/8/19 6:37,2.1,3,2.2,3,3.1,3
2012/8/19 6:38,2,3,2.1,3,2.2,2
2012/8/19 6:39,2,3,2,3,2.2,4
2012/8/19 6:40,1.9,3,1.9,3,2.4,3
2012/8/19 6:41,1.9,3,1.9,3,3.3,3
2012/8/19 6:42,2,3,2,3,2.6,3
2012/8/19 6:43,2,3,2,3,2.6,3
2012/8/19 6:44,1.9,3,2,3,2.4,1
2012/8/19 6:45,1.8,3,1.8,3,2.5,4
2012/8/19 6:46,1.8,3,1.8,3,3.2,3
2012/8/19 6:47,1.8,3,1.8,3,3.1,3
2012/8/19 6:48,1.9,3,1.9,3,4.3,3
2012/8/19 6:49,2,3,2,3,3.9,3
2012/8/19 6:50,2.1,3,2.1,3,2.7,3
2012/8/19 6:51,2,3,2.1,3,3,2
2012/8/19 6:52,2.1,3,2.1,3,2.6,4
2012/8/19 6:53,2.1,3,2.1,3,2.5,3
2012/8/19 6:54,2.1,3,2.1,3,2.5,3
2012/8/19 6:55,2.1,3,2.1,3,2.1,3
2012/8/19 6:56,2.1,3,2.1,3,2.6,3
2012/8/19 6:57,2,3,2.1,3,2.4,3
2012/8/19 6:58,2,3,2,3,3.8,3
2012/8/19 6:59,1.9,3,2,3,3.1,3
2012/8/19 7:00,1.9,3,2,3,3.2,2
2012/8/19 7:01,1.9,3,1.9,3,3.1,1
2012/8/19 7:02,1.9,3,2,3,3.8,3
2012/8/19 7:03,1.9,3,1.9,3,2.7,4
2012/8/19 7:04,1.9,3,1.9,3,2.1,3
2012/8/19 7:05,2,3,2,3,3,3
2012/8/19 7:06,2,3,2,3,2.9,3
2012/8/19 7:07,2,3,2,3,2.7,5
2012/8/19 8:26,3.1,3,3.1,3,3.3,3
2012/8/19 8:27,1.8,5,3.1,3,3.3,3
2012/8/19 8:28,2.5,5,2.5,3,4.3,5
2012/8/19 8:29,2.8,5,2.8,3,3.9,5
2012/8/19 8:30,2.6,5,2.8,3,3.5,5
2012/8/19 8:31,2.4,5,2.6,3,2.1,4
2012/8/19 8:32,2.2,5,2.4,3,2,4
2012/8/19 8:33,2.1,5,2.2,3,2.4,4
2012/8/19 8:34,2.1,5,2.1,3,2.5,6
2012/8/19 8:35,2,5,2.1,3,2,7
2012/8/19 8:36,2,5,2,3,3.1,6
2012/8/19 8:37,1.9,5,2,5,2.4,6
2012/8/19 8:38,1.8,5,1.9,5,1.9,7
2012/8/19 8:39,1.6,5,1.7,5,2.1,5
2012/8/19 8:40,1.5,5,1.5,5,2.6,6
2012/8/19 8:41,1.4,5,1.5,5,1.9,3
2012/8/19 8:42,1.3,5,1.4,5,2.5,4
2012/8/19 8:43,1.5,6,1.5,5,4.1,6
2012/8/19 8:44,1.4,6,1.5,5,3,5
2012/8/19 8:45,1.4,6,1.4,5,2.9,5
2012/8/19 8:46,1.5,6,1.5,5,3.8,6
2012/8/19 8:47,1.5,6,1.5,5,3.2,9
2012/8/19 8:48,1.6,6,1.6,5,3.9,7
2012/8/19 8:49,1.8,6,1.8,6,3.9,6
2012/8/19 8:50,1.9,6,1.9,6,3.2,6
2012/8/19 8:51,2.1,6,2.1,6,3.5,6
2012/8/19 8:52,2.3,6,2.3,6,4.2,5
2012/8/19 8:53,2.3,6,2.3,6,3.7,5
2012/8/19 8:54,2.4,6,2.4,6,3,6
2012/8/19 8:55,2.5,6,2.5,6,3.2,5
2012/8/19 8:56,2.5,6,2.5,6,3.7,6
2012/8/19 8:57,2.6,6,2.6,6,3.9,6
2012/8/19 8:58,2.7,6,2.7,6,3.9,6
2012/8/19 8:59,2.6,6,2.7,6,3.9,6
2012/8/19 9:00,2.6,6,2.6,6,3.9,6
2012/8/19 9:01,2.6,6,2.6,6,3.6,8
2012/8/19 9:02,2.5,6,2.6,6,3.7,4
2012/8/19 9:03,2.5,6,2.5,6,4.1,5
2012/8/19 9:04,2.4,6,2.5,6,3.3,5
2012/8/19 9:05,2.4,6,2.4,6,4.4,6
2012/8/19 9:06,2.5,6,2.5,6,4.1,6
2012/8/19 9:07,2.4,6,2.5,6,3.6,5
2012/8/19 9:08,2.5,6,2.5,6,3.5,7
2012/8/19 9:09,2.5,6,2.5,6,3.5,5
2012/8/19 9:10,2.4,6,2.5,6,3.5,8
2012/8/19 9:11,2.4,6,2.4,6,2.6,4
2012/8/19 9:12,2.3,6,2.3,6,3,5
2012/8/19 9:13,2.2,6,2.3,6,3,4
2012/8/19 9:14,2.3,6,2.3,6,3,5
2012/8/19 9:15,2.2,6,2.3,6,2.6,5
2012/8/19 9:16,2,6,2.2,6,1.9,5
2012/8/19 9:17,2.1,6,2.1,6,4.3,5
2012/8/19 9:18,2,6,2.1,6,3.6,5
2012/8/19 9:19,2,5,2,6,3.3,8
2012/8/19 9:20,2,5,2,6,3.6,6
2012/8/19 9:21,2.1,5,2.1,6,3.3,5
2012/8/19 9:22,2.1,5,2.1,6,3.6,6
2012/8/19 9:23,2.3,5,2.3,6,4.2,6
2012/8/19 9:24,2.5,5,2.5,5,4.4,5
2012/8/19 9:25,2.5,5,2.5,5,3.9,5
2012/8/19 9:26,2.5,5,2.5,5,2.6,6
2012/8/19 9:27,2.4,5,2.6,5,2.1,6
2012/8/19 9:28,2.3,5,2.4,5,1.8,2
2012/8/19 9:29,2.3,5,2.3,5,3.6,5
2012/8/19 9:30,2.3,5,2.3,5,3,3
2012/8/19 9:31,2.4,5,2.4,5,5.2,3
2012/8/19 9:32,2.5,4,2.5,5,5,5
2012/8/19 9:33,2.5,4,2.5,5,4.3,8
2012/8/19 9:34,2.3,5,2.4,5,2.2,8
2012/8/19 9:35,2.2,5,2.2,5,2.9,8
2012/8/19 9:36,2.2,5,2.2,5,3,9
2012/8/19 9:37,2.3,5,2.3,4,4.5,6
2012/8/19 9:38,2.4,6,2.4,4,5,7
2012/8/19 9:39,2.4,6,2.5,4,6.3,8
2012/8/19 9:40,2.4,7,2.4,4,3,7
2012/8/19 9:41,2.2,7,2.4,4,2.7,7
2012/8/19 9:42,2.1,7,2.2,4,4.9,5
2012/8/19 9:43,2.1,7,2.1,6,3.8,5
2012/8/19 9:44,2.1,7,2.1,6,3.3,5
2012/8/19 9:45,2.1,6,2.1,6,2.9,6
2012/8/19 9:46,2.1,6,2.1,6,2.1,6
2012/8/19 9:47,2,6,2.1,6,2.5,7
2012/8/19 9:48,2,6,2.1,6,3.8,5
2012/8/19 9:49,2,6,2,6,4.7,6
2012/8/19 9:50,2.1,6,2.1,7,3.5,6
2012/8/19 9:51,2,6,2.1,7,2.5,6
2012/8/19 9:52,1.8,6,2,7,2.2,5
2012/8/19 9:53,1.7,6,1.8,7,2,9
2012/8/19 9:54,1.7,6,1.7,7,2.7,6
2012/8/19 9:55,1.8,6,1.8,6,4.2,6
2012/8/19 9:56,2,6,2,6,4.2,7
2012/8/19 9:57,2.1,6,2.1,6,3.3,6
2012/8/19 9:58,1.9,6,2,6,1.3,5
2012/8/19 9:59,1.8,6,2,6,2.5,7
2012/8/19 10:00,1.7,6,1.8,6,2.9,9
2012/8/19 10:01,1.7,6,1.7,6,2.4,8
2012/8/19 10:02,1.8,6,1.8,6,3.2,5
2012/8/19 10:03,1.9,6,1.9,6,3.2,5
2012/8/19 10:04,1.8,6,1.9,6,2.2,6
2012/8/19 10:05,1.7,6,1.8,6,3.5,7
2012/8/19 10:06,1.5,6,1.6,6,2.6,7
2012/8/19 10:07,1.6,7,1.6,6,3.1,6
2012/8/19 10:08,1.6,7,1.6,6,2.4,6
2012/8/19 10:09,1.7,7,1.7,6,3.3,8
2012/8/19 10:10,1.8,6,1.8,6,3.5,5
2012/8/19 10:11,2,6,2,6,3.2,6
2012/8/19 10:12,1.8,7,2,6,1.9,5
2012/8/19 10:13,1.8,7,1.8,6,2.2,9
2012/8/19 10:14,1.8,7,1.8,6,2.4,8
2012/8/19 10:15,1.8,7,1.8,6,2.6,8
2012/8/19 10:16,1.7,7,1.8,6,1.4,7
2012/8/19 10:17,1.5,7,1.6,6,1.3,8
2012/8/19 10:18,1.4,7,1.5,6,1.1,6
2012/8/19 10:19,1.2,7,1.4,6,1.3,5
2012/8/19 10:20,1,7,1.2,6,0.8,8
2012/8/19 10:21,0.9,7,1,6,1.4,8
2012/8/19 10:22,0.8,8,0.9,7,1.4,11
2012/8/19 10:23,0.8,8,0.8,7,0.6,10
2012/8/19 10:24,0.6,8,0.7,7,0.8,5
2012/8/19 10:25,0.5,7,0.6,7,1.3,4
2012/8/19 10:26,0.5,7,0.5,7,1.1,8
2012/8/19 10:27,0.6,7,0.6,7,2.1,5
2012/8/19 10:28,0.6,7,0.6,7,1.8,6
2012/8/19 10:29,0.7,7,0.7,7,2,6
2012/8/19 10:30,0.7,7,0.7,7,1.4,4
2012/8/19 10:31,0.7,6,0.7,7,1.4,5
2012/8/19 10:32,0.7,6,0.7,8,1.5,2
2012/8/19 10:33,0.7,6,0.7,8,1.4,3
2012/8/19 10:34,0.7,6,0.7,7,0.3,8
2012/8/19 10:35,0.7,6,0.7,7,0.4,15
2012/8/19 10:36,0.7,6,0.7,7,1.3,9
2012/8/19 10:37,0.6,7,0.7,7,1.4,10
2012/8/19 10:38,0.6,8,0.6,7,1,10
2012/8/19 10:39,0.5,9,0.6,7,0.6,10
2012/8/19 10:40,0.5,9,0.5,7,1.6,8
2012/8/19 10:41,0.6,9,0.6,6,1.3,8
2012/8/19 10:42,0.5,9,0.6,6,1.1,7
2012/8/19 10:43,0.6,9,0.6,6,1.3,8
2012/8/19 10:44,0.6,8,0.6,6,0.5,7
2012/8/19 10:45,0.6,8,0.6,6,0.5,6
2012/8/19 10:46,0.7,8,0.7,6,1.4,5
2012/8/19 10:47,0.6,7,0.7,8,1.1,5
2012/8/19 10:48,0.6,7,0.6,8,0.5,6
2012/8/19 10:49,0.6,6,0.6,8,1,5
2012/8/19 10:50,0.6,6,0.6,8,1.5,1
2012/8/19 10:51,0.6,6,0.6,8,1.6,16
2012/8/19 10:52,0.6,5,0.7,8,1.8,16
2012/8/19 10:53,0.7,5,0.7,8,2.9,5
2012/8/19 10:54,0.9,4,0.9,4,3,4
2012/8/19 10:55,1.1,4,1.1,4,3.3,4
2012/8/19 10:56,1.2,4,1.2,4,2.9,4
2012/8/19 10:57,1.3,4,1.3,4,2.6,3
2012/8/19 10:58,1.4,3,1.4,3,1.8,10
2012/8/19 10:59,1.3,4,1.4,3,1.8,9
2012/8/19 11:00,1.3,4,1.4,3,1.6,7
2012/8/19 11:01,1.5,5,1.5,5,3.9,5
2012/8/19 11:02,1.7,5,1.7,5,3.7,5
2012/8/19 11:03,1.7,5,1.7,5,3.1,5
2012/8/19 11:04,1.7,5,1.7,5,2.7,5
2012/8/19 11:05,1.6,5,1.7,5,2.4,7
2012/8/19 11:06,1.4,6,1.6,5,2,9
2012/8/19 11:07,1.4,6,1.4,5,2.1,6
2012/8/19 11:08,1.5,6,1.5,5,2.7,6
2012/8/19 11:09,1.5,6,1.5,5,1.5,4
2012/8/19 11:10,1.5,6,1.6,5,2.2,7
2012/8/19 11:11,1.3,6,1.5,5,0.8,3
2012/8/19 11:12,1.2,5,1.3,5,1.8,3
2012/8/19 11:13,1.1,5,1.2,5,1.6,4
2012/8/19 11:14,1,5,1.1,5,0.8,2
2012/8/19 11:15,0.8,5,1,5,0.8,1
2012/8/19 11:16,0.8,4,0.8,6,0.9,10
2012/8/19 11:17,0.9,5,0.9,6,3.8,7
2012/8/19 11:18,0.8,5,0.9,6,2.4,7
2012/8/19 11:19,0.8,5,0.9,6,2.6,7
2012/8/19 11:20,0.9,5,0.9,6,3.5,9
2012/8/19 11:21,1,6,1,6,2.9,7
2012/8/19 11:22,1,6,1,5,1.9,8
2012/8/19 11:23,1.1,7,1.1,5,4.3,7
2012/8/19 11:24,1.4,7,1.4,7,3.8,6
2012/8/19 11:25,1.5,7,1.5,7,2.6,7
2012/8/19 11:26,1.5,7,1.5,7,1.4,5
2012/8/19 11:27,1.4,7,1.5,7,1.3,7
2012/8/19 11:28,1.4,7,1.4,7,2.4,10
2012/8/19 11:29,1.4,7,1.4,7,2.2,10
2012/8/19 11:30,1.4,7,1.5,7,3.1,9
2012/8/19 11:31,1.6,7,1.6,7,4.9,6
2012/8/19 11:32,1.7,7,1.7,7,3.8,7
2012/8/19 11:33,1.6,7,1.7,7,2.6,8
2012/8/19 11:34,1.6,7,1.6,7,3,9
2012/8/19 11:35,1.6,7,1.6,7,2.7,6
2012/8/19 11:36,1.8,7,1.8,7,2.9,6
2012/8/19 11:37,1.9,7,1.9,7,3.3,6
2012/8/19 11:38,1.9,7,1.9,7,2.2,6
2012/8/19 11:39,1.9,6,1.9,7,2.6,5
2012/8/19 11:40,2,6,2,6,4.7,5
2012/8/19 11:41,2,6,2,6,4.3,3
2012/8/19 11:42,2,6,2,6,3.7,4
2012/8/19 11:43,2,5,2.1,5,3.3,3
2012/8/19 11:44,2,5,2,5,2.7,3
2012/8/19 11:45,1.9,4,2,5,2.1,4
2012/8/19 11:46,1.9,4,1.9,5,3.7,6
2012/8/19 11:47,2.1,5,2.1,5,5.4,5
2012/8/19 11:48,2.2,5,2.2,5,3.3,7
2012/8/19 11:49,2.2,5,2.2,5,3.2,6
2012/8/19 11:50,2.1,5,2.3,5,2.5,6
2012/8/19 11:51,2,5,2.1,5,3.6,7
2012/8/19 11:52,1.9,6,2,5,3.3,6
2012/8/19 11:53,1.9,6,1.9,5,3.8,6
2012/8/19 11:54,1.9,6,1.9,5,3.2,7
2012/8/19 11:55,2.1,7,2.1,5,5.2,8
2012/8/19 11:56,2.2,7,2.2,5,5,8
2012/8/19 11:57,2.2,7,2.3,5,5,8
2012/8/19 11:58,2.2,7,2.3,5,3.9,6
2012/8/19 11:59,2.2,6,2.2,5,3.6,5
2012/8/19 12:00,2.4,6,2.4,6,4.4,6
2012/8/19 12:01,2.6,6,2.6,6,5.6,5
2012/8/19 12:02,2.7,6,2.7,6,4.7,4
2012/8/19 12:03,2.7,6,2.7,6,3.5,6
2012/8/19 12:04,2.6,6,2.7,6,1.5,11
2012/8/19 12:05,2.4,6,2.5,6,2.7,7
2012/8/19 12:06,2.1,6,2.4,6,1.9,8
2012/8/19 12:07,1.9,6,2.1,6,3.8,8
2012/8/19 12:08,1.9,7,1.9,6,2.1,8
2012/8/19 12:09,1.9,7,1.9,6,3.1,6
2012/8/19 12:10,1.7,7,1.8,6,4.4,6
2012/8/19 12:11,1.7,7,1.8,6,5,7
2012/8/19 12:12,1.6,7,1.7,6,4.3,5
2012/8/19 12:13,1.8,7,1.8,6,4.9,8
2012/8/19 12:14,2,7,2,6,4.5,7
2012/8/19 12:15,2.1,7,2.1,6,2.7,6
2012/8/19 12:16,2.1,7,2.1,6,1.9,7
2012/8/19 12:17,2.2,7,2.2,7,3.9,8
2012/8/19 12:18,2.3,7,2.3,7,4.3,9
2012/8/19 12:19,2.3,7,2.3,7,3.6,8
2012/8/19 12:20,2.5,7,2.5,7,5,7
2012/8/19 12:21,2.5,7,2.5,7,5,8
2012/8/19 12:22,2.6,7,2.6,7,6.1,8
2012/8/19 12:23,2.6,7,2.6,7,5.1,8
2012/8/19 12:24,2.6,8,2.6,7,4.2,9
2012/8/19 12:25,2.6,8,2.6,7,3.1,8
2012/8/19 12:26,2.7,8,2.7,8,2.7,8
2012/8/19 12:27,2.6,8,2.7,8,3.2,5
2012/8/19 12:28,2.6,7,2.7,8,4.2,9
2012/8/19 12:29,2.7,7,2.7,8,4.7,6
2012/8/19 12:30,2.6,7,2.7,8,4.4,6
2012/8/19 12:31,2.5,7,2.6,8,4.7,6
2012/8/19 12:32,2.3,7,2.5,8,4.1,8
2012/8/19 12:33,2.2,7,2.3,8,3.1,9
2012/8/19 12:34,2,7,2.2,8,2.4,8
2012/8/19 12:35,2,7,2,8,3.2,8
2012/8/19 12:36,2.1,7,2.1,8,4.5,9
2012/8/19 12:37,2.2,7,2.2,8,4.7,7
2012/8/19 12:38,2.3,7,2.3,7,4.4,7
2012/8/19 12:39,2.3,8,2.4,7,6.9,8
2012/8/19 12:40,2.3,8,2.3,7,5.2,7
2012/8/19 12:41,2.3,8,2.4,7,5.1,6
2012/8/19 12:42,2.3,8,2.3,7,2.6,6
2012/8/19 12:43,2.4,7,2.4,7,5.1,5
2012/8/19 12:44,2.6,7,2.6,7,4.4,5
2012/8/19 12:45,2.6,7,2.7,7,4.5,6
2012/8/19 12:46,2.6,7,2.7,7,3.2,8
2012/8/19 12:47,2.4,7,2.6,7,3.2,5
2012/8/19 12:48,2.5,6,2.5,7,4.8,5
2012/8/19 12:49,2.2,6,2.4,7,2.2,4
2012/8/19 12:50,2.1,6,2.2,7,2.1,7
2012/8/19 12:51,2,6,2.1,7,3.6,8
2012/8/19 12:52,2.2,6,2.2,7,4.7,5
2012/8/19 12:53,2.1,6,2.2,7,6.3,7
2012/8/19 16:20,4.8,8,4.8,8,5.8,8
2012/8/19 16:21,4.1,7,4.8,8,5.8,8
2012/8/19 16:22,4.2,7,4.5,8,6.5,7
2012/8/19 16:23,4.7,7,4.7,8,7.2,6
2012/8/19 16:24,4.6,7,4.9,7,7.1,6
2012/8/19 16:25,4.4,7,4.6,7,5.7,6
2012/8/19 16:26,4.4,6,4.5,7,6.3,6
2012/8/19 16:27,4.2,6,4.4,7,4.4,6
2012/8/19 16:28,4.1,6,4.2,7,5.1,6
2012/8/19 16:29,4.1,6,4.1,7,6,6
2012/8/19 16:30,4,6,4.1,7,4.7,7
2012/8/19 16:31,3.8,6,4,7,4.4,9
2012/8/19 16:32,3.5,6,3.8,7,2.1,7
2012/8/19 16:33,3.1,6,3.5,7,4.1,6
2012/8/19 16:34,3,6,3.1,7,4.7,5
2012/8/19 16:35,2.9,6,3,7,4.4,5
2012/8/19 16:36,2.8,6,2.9,6,3.9,6
2012/8/19 16:37,2.7,6,2.7,6,4.1,6
2012/8/19 16:38,2.6,6,2.7,6,5.4,6
2012/8/19 16:39,2.6,6,2.7,6,6.1,6
2012/8/19 16:40,2.5,6,2.6,6,4.1,8
2012/8/19 16:41,2.6,6,2.6,6,5.7,7
2012/8/19 16:42,2.7,6,2.7,6,3.7,8
2012/8/19 16:43,3,6,3,6,7.6,7
2012/8/19 16:44,3.1,7,3.1,7,7.2,8
2012/8/19 16:45,3.2,7,3.2,7,7.2,8
2012/8/19 16:46,3.3,7,3.3,7,6,8
2012/8/19 16:47,3.3,7,3.4,7,5.7,8
2012/8/19 16:48,3.3,7,3.3,7,3.8,9
2012/8/19 16:49,3.2,8,3.2,7,5.6,8
2012/8/19 16:50,3.2,8,3.2,7,4.5,8
2012/8/19 16:51,3.2,8,3.2,7,6,7
2012/8/19 16:52,3.2,8,3.2,7,3.3,5
2012/8/19 16:53,3,8,3.2,7,3.8,8
2012/8/19 16:54,2.9,8,3,7,5.4,8
2012/8/19 16:55,2.8,8,2.9,7,5,8
2012/8/19 16:56,2.7,8,2.8,7,5.4,8
2012/8/19 16:57,2.9,8,2.9,7,7,6
2012/8/19 16:58,3,8,3,7,5.7,7
2012/8/19 16:59,3.1,8,3.1,8,6.9,8
2012/8/19 17:00,3.3,8,3.3,8,8.1,8
2012/8/19 17:01,3.4,8,3.4,8,5.6,7
2012/8/19 17:02,3.6,8,3.6,8,6.2,7
2012/8/19 17:03,3.7,8,3.7,8,5.1,7
2012/8/19 17:04,3.6,8,3.7,8,4.5,8
2012/8/19 17:05,3.6,8,3.6,8,6,8
2012/8/19 17:06,3.8,8,3.8,8,7.1,8
2012/8/19 17:07,3.7,8,3.8,8,4.8,8
2012/8/19 17:08,3.5,8,3.7,8,4.5,8
2012/8/19 17:09,3.4,8,3.6,8,4.3,8
2012/8/19 17:10,3.1,8,3.4,8,3.2,8
2012/8/19 17:11,3,8,3.1,8,5.5,9
2012/8/19 17:12,2.9,8,3,8,5.7,9
2012/8/19 17:13,2.9,8,2.9,8,4.2,8
2012/8/19 17:14,2.8,8,2.9,8,3.1,8
2012/8/19 17:15,2.7,8,2.8,8,4.3,8
2012/8/19 17:16,2.5,9,2.7,8,3.9,8
2012/8/19 17:17,2.4,9,2.5,8,3,9
2012/8/19 17:18,2.4,9,2.4,8,2.9,8
2012/8/19 17:19,2.3,9,2.4,8,3.2,8
2012/8/19 17:20,2.4,8,2.4,8,3.7,8
2012/8/19 17:21,2.4,8,2.4,8,5.2,7
2012/8/19 17:22,2.4,8,2.5,8,4.3,7
2012/8/19 17:23,2.4,8,2.4,8,3.5,6
2012/8/19 17:24,2.4,8,2.4,8,3,7
2012/8/19 17:25,2.3,7,2.4,8,2.5,6
2012/8/19 17:26,2.3,7,2.3,9,3.5,7
2012/8/19 17:27,2.4,7,2.4,8,3.9,6
2012/8/19 17:28,2.4,7,2.4,8,3,6
2012/8/19 17:29,2.5,7,2.5,8,4.5,7
2012/8/19 17:30,2.5,7,2.5,8,4.7,6
2012/8/19 17:31,2.4,6,2.5,8,3.5,5
2012/8/19 17:32,2.3,7,2.4,7,3.2,7
2012/8/19 17:33,2.3,7,2.3,7,3.6,6
2012/8/19 17:34,2.3,7,2.3,7,5.8,7
2012/8/19 17:35,2.4,7,2.4,7,4.9,7
2012/8/19 17:36,2.4,7,2.5,7,3.1,6
2012/8/19 17:37,2.3,7,2.4,7,2.7,9
2012/8/19 17:38,2.3,7,2.3,7,3.5,7
2012/8/19 17:39,2.2,7,2.3,7,3.7,5
2012/8/19 17:40,2.1,7,2.2,6,3.8,6
2012/8/19 17:41,2.2,7,2.2,7,4.9,7
2012/8/19 17:42,2.2,7,2.3,7,4.5,6
2012/8/19 17:43,2.1,7,2.2,7,2.7,6
2012/8/19 17:44,2.2,7,2.2,7,3.7,5
2012/8/19 17:45,2.2,7,2.2,7,5.5,6
2012/8/19 17:46,2.3,6,2.3,7,4.3,6
2012/8/19 17:47,2.3,7,2.4,6,2.5,5
2012/8/19 17:48,2.1,7,2.3,6,1.1,9
2012/8/19 17:49,2.1,7,2.1,6,3.2,6
2012/8/19 17:50,2.2,6,2.2,6,4.9,6
2012/8/19 17:51,2,6,2.2,6,3.2,8
2012/8/19 17:52,1.9,6,2,6,2,6
2012/8/19 17:53,2,6,2,6,3.6,6
2012/8/19 17:54,2.1,6,2.1,6,4.4,6
2012/8/19 17:55,2,6,2.1,6,3.2,7
2012/8/19 17:56,1.9,6,1.9,6,3.8,7
2012/8/19 17:57,2.1,6,2.1,7,5.1,6
2012/8/19 17:58,2.4,6,2.4,6,4.3,6
2012/8/19 17:59,2.5,6,2.5,6,3.9,6
2012/8/19 18:00,2.5,6,2.5,6,3.9,5
2012/8/19 18:01,2.7,6,2.7,6,4.9,5
2012/8/19 18:02,2.8,6,2.8,6,3.1,5
2012/8/19 18:03,2.8,6,2.8,6,5.2,6
2012/8/19 18:04,2.8,6,2.8,6,4.5,6
2012/8/19 18:05,3,6,3,6,4.7,4
2012/8/19 18:06,3,6,3,6,3.9,5
2012/8/19 18:07,2.9,6,3,6,4.4,6
2012/8/19 18:08,3,6,3,6,5.8,5
2012/8/19 18:09,3,6,3,6,5.5,6
2012/8/19 18:10,3.1,5,3.1,6,5.1,6
2012/8/19 18:11,3.1,5,3.1,6,4.9,6
2012/8/19 18:12,3.2,5,3.2,5,5.7,5
2012/8/19 18:13,3.1,5,3.2,5,4.2,5
2012/8/19 18:14,3.1,5,3.1,5,4.3,4
2012/8/19 18:15,3,5,3.1,5,3.5,8
2012/8/19 18:16,2.9,6,3,5,4.3,5
2012/8/19 18:17,3,5,3.1,5,4.2,5
2012/8/19 18:18,2.8,5,3,5,3.2,5
2012/8/19 18:19,2.7,6,2.8,5,3.6,7
2012/8/19 18:20,2.6,6,2.7,5,3.8,6
2012/8/19 18:21,2.5,6,2.6,5,3.5,7
2012/8/19 18:22,2.4,6,2.5,5,2.6,6
2012/8/19 18:23,2.4,6,2.4,5,3.5,6
2012/8/19 18:24,2.2,6,2.4,5,1.8,8
2012/8/19 18:25,2.2,6,2.2,5,2.6,5
2012/8/19 18:26,2.1,6,2.2,5,2.2,6
2012/8/19 18:27,1.9,6,2.1,5,2.6,5
2012/8/19 18:28,2,6,2,5,3.6,8
2012/8/19 18:29,1.9,6,1.9,6,3.2,7
2012/8/19 18:30,1.8,7,1.9,6,3.1,7
2012/8/19 18:31,1.8,7,1.8,6,3.2,6
2012/8/19 18:32,1.9,6,1.9,6,4.3,6
2012/8/19 18:33,1.8,6,1.9,6,3,5
2012/8/19 18:34,2,6,2,6,4.9,4
2012/8/19 18:35,2.2,6,2.2,6,4.9,6
2012/8/19 18:36,2.3,6,2.3,6,4.7,6
2012/8/19 18:37,2.4,6,2.5,6,3.8,7
2012/8/19 18:38,2.4,6,2.4,6,3.8,6
2012/8/19 18:39,2.4,6,2.5,6,3.5,5
2012/8/19 18:40,2.4,6,2.4,6,2.7,4
2012/8/19 18:41,2.4,6,2.5,6,3.1,6
2012/8/19 18:42,2.4,6,2.4,6,3.3,6
2012/8/19 18:43,2.4,6,2.4,6,3.9,5
2012/8/19 18:44,2.4,6,2.5,6,4.1,6
2012/8/19 18:45,2.4,6,2.4,6,3.3,5
2012/8/19 18:46,2.3,6,2.4,6,2.9,5
2012/8/19 18:47,2.2,5,2.3,6,2.7,5
2012/8/19 18:48,2.2,5,2.2,6,3,5
2012/8/19 18:49,2.2,5,2.2,6,2.6,5
2012/8/19 18:50,2.3,5,2.3,6,2.7,5
2012/8/19 18:51,2.2,5,2.3,6,2.5,2
2012/8/19 18:52,2.3,4,2.3,6,3,2
2012/8/19 18:53,2.2,4,2.3,6,2.2,2
2012/8/19 18:54,2,4,2.1,6,2.5,2
2012/8/19 18:55,1.9,3,2,6,2.5,2
2012/8/19 18:56,1.8,3,1.9,6,2.5,2
2012/8/19 18:57,1.8,3,1.8,5,2.4,3
2012/8/19 18:58,1.8,2,1.8,5,2.9,2
2012/8/19 18:59,1.8,2,1.8,5,3.2,2
2012/8/19 19:00,1.8,2,1.8,5,4.5,3
2012/8/19 19:01,1.8,2,1.8,5,3.1,3
2012/8/19 19:02,1.8,2,1.8,4,4.4,3
2012/8/19 19:03,1.9,2,1.9,4,3.8,2
2012/8/19 19:04,2,2,2,4,4.3,2
2012/8/19 19:05,2.2,2,2.2,2,4.2,3
2012/8/19 19:06,2.3,2,2.3,2,3.7,3
2012/8/19 19:07,2.3,2,2.3,2,3.5,2
2012/8/19 19:08,2.5,2,2.5,2,4.7,2
2012/8/19 19:09,2.6,2,2.6,2,4.5,3
2012/8/19 19:10,2.7,2,2.7,2,4.4,2
2012/8/19 19:11,2.8,2,2.8,2,3.9,3
2012/8/19 19:12,2.9,2,2.9,2,4.8,2
2012/8/19 19:13,3,2,3,2,4.7,3
2012/8/19 19:14,3,2,3,2,5,3